Starlink 5161

operational
NORAD ID: 54163 Int'l Des: 2022-141 Owner: SPXS Country: US Constellation: starlink
LEOCIRCULAR

关于 Starlink 5161

正在加载描述...

实时位置

正在加载3D地球...

即将过境

高度历史

Altitude vs Time

uPlot chart will show altitude changes over time

两行轨道根数

1 54163U 22141G 25348.49456538 .00000447 00000-0 46199-4 0 9993
2 54163 53.2190 26.7469 0001381 93.2489 266.8661 15.08829905172993
Epoch: Dec 14, 2025 • Age: 29 hours

当前状态

高度 542.5 km
速度 7.60 km/s
星下点 39.89°N, 177.42°W
发射日期 Oct 28, 2022
运行时间 3.1 years
类型 internet

技术详情

分类 Payload
质量 305.00 kg
干质量 290.00 kg
总质量 305.00 kg
长度 0.20 m
直径 2.80 m
跨度 9.00 m
形状 Box + pan
制造商 SPXS
平台类型 Starlink
阶段状态 In Orbit
所有者/国家 SPXS/US

大型星座

Loading constellations...